CAPE
24 50 536 669 363 277 375 112 42 8 0 0 0 0 11 18 1 0 3 20 4 3 16 24 37 50 40 36 35 23 28 15 2 0 0 0 0 0 8 4 0 1 4
64 117 563 650 385 410 278 99 16 0 0 0 0 0 0 0 0 0 0 3 5 5 2 12 16 15 24 23 10 15 16 4 1 0 0 0 0 0 1 2 0 1 36
47 126 388 632 330 362 260 68 10 0 0 0 0 5 0 4 6 0 0 4 7 10 4 0 0 0 0 7 23 22 18 6 0 0 0 0 0 0 0 0 0 0 17
66 145 293 678 299 307 255 70 33 16 0 0 0 11 30 16 20 16 5 5 7 5 0 0 0 0 0 3 22 19 21 13 3 0 0 0 0 8 0 0 0 0 0
17 296 640 276 223 313 112 36 31 37 8 0 0 4 25 39 70 19 15 8 11 0 0 0 0 0 0 0 0 6 4 14 5 0 0 0 0 0 6 0 0 0 0
18 545 525 411 392 253 139 106 40 29 33 26 0 5 14 54 117 128 23 17 3 2 0 0 0 0 0 0 0 0 0 0 0 0 0 0 0 0 0 5 2 0 0
63 718 738 682 469 260 250 203 73 54 22 12 1 0 17 59 118 171 72 19 1 0 0 0 0 0 0 5 0 0 0 0 0 0 0 0 0 0 0 0 1 1 0
96 320 629 775 409 310 224 114 84 87 55 33 1 0 2 31 77 110 145 31 0 0 0 0 0 0 0 0 6 2 0 0 0 0 0 0 0 0 0 0 0 0 0
131 216 243 400 309 372 363 346 169 87 110 77 49 2 12 4 0 23 58 5 0 0 0 0 0 0 0 0 0 0 0 0 0 0 0 0 0 0 0 0 0 0 0
193 239 227 322 344 386 139 185 175 152 158 79 58 26 0 0 0 0 0 0 0 0 0 0 0 0 0 0 0 0 0 0 0 0 0 0 0 0 0 0 0 0 0
243 288 307 348 475 405 370 282 163 124 124 100 59 23 5 0 0 0 0 0 0 0 0 0 0 0 0 0 0 0 0 0 0 0 0 0 0 0 0 0 0 0 0
222 311 393 393 464 409 312 362 262 138 123 99 93 80 23 0 0 0 0 0 0 0 0 0 0 0 0 0 0 0 0 0 0 0 0 0 0 0 0 0 0 0 0
102 257 399 455 461 464 392 262 270 229 165 125 89 40 21 1 0 0 0 0 0 0 0 0 0 0 0 0 0 0 0 0 0 0 0 0 0 0 0 0 0 0 1
27 166 294 417 519 535 503 360 295 162 141 104 76 58 26 19 8 4 4 3 1 3 3 2 8 8 9 11 5 7 9 8 3 0 0 0 0 0 0 0 4 9 10
3 14 123 266 466 557 558 446 332 229 152 124 117 131 98 90 99 113 124 126 95 41 27 13 6 7 4 4 9 11 6 5 9 13 10 6 2 0 0 2 4 12 22
6 18 21 66 275 442 507 443 354 275 184 157 145 146 126 108 102 123 92 25 7 1 3 6 9 2 1 0 0 0 0 0 0 0 0 0 0 0 7 14 27 22 22
0 0 0 3 49 258 326 371 256 187 155 146 114 94 82 75 36 44 5 0 0 0 0 0 0 0 0 0 0 0 0 0 0 0 0 0 0 1 29 37 30 19 59
0 0 0 0 0 98 250 229 180 104 85 52 59 39 0 0 0 0 0 0 0 0 0 0 0 0 0 0 0 0 0 0 0 0 0 0 4 5 19 79 86 74 37
0 0 0 0 0 93 164 32 9 5 0 0 0 0 0 0 0 0 0 0 0 0 0 0 0 0 0 0 0 0 0 0 0 0 0 0 0 0 0 0 2 4 50
0 0 0 7 40 62 5 0 0 0 0 0 0 0 0 0 0 0 0 0 0 0 0 0 0 0 0 0 0 0 0 0 0 0 0 0 0 0 0 0 0 1 0
0 0 0 0 0 0 0 0 0 0 0 0 0 0 0 0 0 0 0 0 0 0 0 0 0 0 0 0 0 0 0 0 0 0 0 0 0 0 0 0 0 0 0
0 0 0 0 0 0 0 0 0 0 0 0 0 0 0 0 0 0 0 0 0 0 0 0 0 0 0 0 0 0 0 0 0 0 0 0 0 0 0 0 0 0 0
0 0 0 0 0 0 0 0 0 0 0 0 0 0 0 0 0 0 0 0 0 0 0 0 0 0 0 0 0 0 0 0 0 0 0 0 0 0 0 0 0 0 0
0 0 0 0 0 0 0 0 0 0 0 0 0 0 0 0 0 0 0 0 0 0 0 0 0 0 0 0 0 0 0 0 0 0 0 0 0 0 0 0 0 0 0
0 0 0 0 0 0 0 0 0 0 0 0 0 0 0 0 0 0 0 0 0 0 0 0 0 0 0 0 0 0 0 0 0 0 0 0 0 0 0 0 0 0 0
0 0 0 0 0 0 0 0 0 0 0 0 0 0 0 0 0 0 0 0 0 0 0 0 0 0 0 0 0 0 0 0 0 0 0 0 0 0 0 0 0 0 0
CIN
-416 -394 -175 -116 -145 -156 -122 -246 -314 -28 0 0 0 0 -29 -2 -0 0 -3 -6 -4 -0 -0 -0 -0 -0 -0 -73 -0 -15 -21 -20 -9 0 0 0 0 0 -2 -7 0 -1 -2
-403 -384 -180 -126 -154 -117 -142 -230 -163 -3 0 0 0 0 0 0 0 -2 0 -5 -1 -1 -0 -0 -5 -2 -0 -0 -7 -21 -12 -6 -8 0 0 0 0 0 0 -0 0 -3 -0
-368 -339 -228 -141 -169 -132 -138 -252 -404 0 0 0 0 -1 0 -3 -3 0 -1 -3 -1 -0 -1 0 0 0 0 -11 -14 -9 -6 -6 0 0 0 0 0 0 0 0 0 0 -0
-327 -306 -236 -132 -175 -147 -164 -275 -347 -419 0 0 0 -1 -2 -4 -4 -3 -4 -2 -4 -4 0 0 0 0 0 -7 -4 -3 -2 -1 -6 0 0 0 0 -5 0 0 0 0 0
-203 -227 -177 -210 -196 -167 -239 -341 -353 -363 -429 0 0 -5 -16 -498 -459 -15 -6 -1 -4 0 0 0 0 0 0 0 0 -3 -2 -2 -6 0 0 0 0 -0 -2 0 0 0 0
-337 -202 -201 -197 -174 -192 -228 -221 -346 -390 -406 -453 0 -10 -14 -455 -354 -358 -16 -8 -5 -7 0 0 0 0 0 0 0 0 0 -0 -0 0 0 0 0 0 0 -0 0 0 0
-275 -206 -182 -172 -185 -214 -191 -198 -295 -334 -445 -352 -145 0 -559 -396 -334 -312 -485 -21 -10 0 0 0 0 0 0 -0 0 0 0 0 0 0 0 0 0 0 0 0 -0 -0 -0
-229 -265 -224 -171 -219 -218 -227 -273 -291 -284 -362 -439 -101 0 -357 -471 -395 -332 -325 -543 -2 0 0 0 0 0 0 0 -0 0 0 0 0 0 0 0 0 0 0 0 0 0 -0
-246 -262 -310 -263 -265 -216 -191 -183 -229 -307 -283 -348 -412 -513 -553 -634 0 -505 -431 -568 0 0 0 0 0 0 0 0 0 0 0 0 0 0 0 0 0 0 0 0 0 0 0
-233 -239 -285 -290 -251 -215 -313 -262 -252 -260 -263 -350 -403 -503 0 0 0 0 0 0 0 0 0 0 0 0 0 0 0 0 0 0 0 0 0 0 0 0 0 0 0 0 0
-237 -231 -228 -222 -205 -214 -213 -222 -276 -328 -323 -357 -436 -524 -522 0 0 0 0 0 0 0 0 0 0 0 0 0 0 0 0 0 0 0 0 0 0 0 0 0 0 0 0
-236 -249 -217 -203 -164 -157 -167 -166 -196 -307 -344 -394 -377 -379 -478 0 0 0 0 0 0 0 0 0 0 0 0 0 0 0 0 0 0 0 0 0 0 0 0 0 0 0 0
-231 -251 -217 -189 -172 -170 -158 -195 -181 -218 -280 -309 -351 -435 -459 -243 0 0 0 0 0 0 0 0 0 0 0 0 0 0 0 0 0 0 0 0 0 0 0 0 0 0 -0
-205 -229 -250 -206 -170 -149 -145 -169 -166 -250 -280 -314 -339 -349 -398 -376 -366 -354 -319 -152 -31 -33 -7 -5 -6 -6 -6 -5 -10 -8 -8 -7 -9 -1 0 0 0 0 0 0 -0 -0 0
-212 -236 -284 -257 -201 -152 -132 -158 -146 -180 -250 -261 -241 -205 -230 -201 -161 -140 -130 -138 -169 -192 -8 -8 -11 -6 -6 -4 -4 -4 -5 -6 -6 -5 -7 -4 -5 0 0 -3 -4 -0 -0
-205 -282 -325 -301 -234 -194 -144 -126 -131 -140 -189 -216 -213 -179 -166 -150 -131 -118 -148 -150 -17 -15 -6 -3 -4 -3 -1 0 0 0 0 0 0 0 0 0 0 0 -4 -6 -5 -3 -1
0 0 0 -116 -331 -222 -179 -137 -153 -203 -229 -212 -212 -216 -191 -187 -215 -170 -25 -0 0 0 0 0 0 0 0 0 0 0 0 0 0 0 0 0 0 -2 -4 -7 -9 -6 -2
0 0 0 0 0 -300 -206 -168 -199 -273 -300 -318 -275 -233 0 0 0 0 0 0 0 0 0 0 0 0 0 0 0 0 0 0 0 0 0 0 -7 -11 -16 -11 -1 -4 -7
0 0 0 0 0 -292 -226 -384 -208 -218 0 0 0 0 0 0 0 0 0 0 0 0 0 0 0 0 0 0 0 0 0 0 0 0 0 0 0 0 0 0 -18 -10 -10
0 0 0 -362 -381 -320 -431 0 0 0 0 0 0 0 0 0 0 0 0 0 0 0 0 0 0 0 0 0 0 0 0 0 0 0 0 0 0 0 0 0 0 -6 0
0 0 0 0 0 0 0 0 0 0 0 0 0 0 0 0 0 0 0 0 0 0 0 0 0 0 0 0 0 0 0 0 0 0 0 0 0 0 0 0 0 0 0
0 0 0 0 0 0 0 0 0 0 0 0 0 0 0 0 0 0 0 0 0 0 0 0 0 0 0 0 0 0 0 0 0 0 0 0 0 0 0 0 0 0 0
0 0 0 0 0 0 0 0 0 0 0 0 0 0 0 0 0 0 0 0 0 0 0 0 0 0 0 0 0 0 0 0 0 0 0 0 0 0 0 0 0 0 0
0 0 0 0 0 0 0 0 0 0 0 0 0 0 0 0 0 0 0 0 0 0 0 0 0 0 0 0 0 0 0 0 0 0 0 0 0 0 0 0 0 0 0
0 0 0 0 0 0 0 0 0 0 0 0 0 0 0 0 0 0 0 0 0 0 0 0 0 0 0 0 0 0 0 0 0 0 0 0 0 0 0 0 0 0 0
0 0 0 0 0 0 0 0 0 0 0 0 0 0 0 0 0 0 0 0 0 0 0 0 0 0 0 0 0 0 0 0 0 0 0 0 0 0 0 0 0 0 0
Wind_Speed
16 15 14 14 14 14 14 15 16 17 19 19 18 16 14 12 14 15 17 17 19 20 20 19 18 18 18 17 16 17 18 19 21 22 22 18 12 11 14 14 16 15 12
14 14 15 15 15 15 15 15 17 17 19 19 18 15 14 13 15 16 16 16 18 19 20 19 20 20 20 20 18 19 19 20 22 20 20 14 8 8 11 14 12 15 18
14 15 14 15 15 16 15 15 16 17 18 18 18 16 15 14 15 16 16 16 17 19 21 21 21 21 21 22 22 20 21 20 21 20 16 10 7 6 8 9 9 9 13
13 14 14 15 16 16 15 16 17 17 17 18 17 17 17 15 16 15 15 16 16 18 20 21 21 21 22 22 23 22 23 22 21 21 18 16 18 9 9 9 9 8 8
12 13 13 14 15 16 16 16 17 17 17 18 16 15 17 17 16 16 14 16 16 18 20 20 20 21 21 22 23 23 24 24 22 21 21 19 19 19 13 15 13 13 11
11 13 12 13 14 15 15 16 16 17 16 17 17 15 16 19 20 14 14 15 15 18 20 21 20 20 21 22 23 23 24 25 23 24 26 23 16 17 18 18 19 17 18
10 12 12 12 13 14 14 15 16 16 16 17 17 16 16 21 19 13 13 14 15 18 19 20 21 22 22 23 23 23 22 22 24 24 23 22 20 17 19 19 19 18 16
10 11 11 11 11 12 13 14 15 15 15 16 17 16 17 19 20 18 13 15 17 17 18 19 22 24 24 25 23 24 23 22 24 24 24 23 23 21 20 20 20 20 19
10 10 10 10 11 11 12 14 14 14 14 16 16 18 17 17 18 18 16 16 17 18 21 21 24 25 25 26 26 25 23 22 22 23 23 22 20 20 22 22 22 22 21
11 10 10 9 10 10 10 11 12 13 14 14 15 16 16 15 14 15 16 16 18 20 23 23 24 25 25 26 26 25 22 21 22 22 20 20 19 21 22 23 23 23 23
14 12 12 10 9 8 9 10 11 13 13 13 12 13 14 13 11 12 15 17 20 23 23 23 23 24 24 25 24 22 22 23 23 22 22 21 22 23 24 25 25 26 25
11 13 13 12 11 13 15 12 12 12 14 12 12 11 12 14 17 17 18 18 20 21 22 22 23 23 24 24 25 27 25 22 23 22 24 24 23 23 22 22 23 23 21
9 10 13 12 11 11 13 13 12 14 14 13 13 15 15 16 16 17 17 17 19 21 21 23 24 24 24 24 27 28 26 25 26 27 25 22 21 20 20 20 21 21 21
11 10 11 13 12 13 13 13 14 14 15 17 15 16 16 16 17 18 20 21 21 22 23 26 26 28 28 29 29 30 30 29 27 24 22 20 20 20 21 21 23 23 24
10 11 14 11 13 15 14 12 15 16 16 16 17 18 18 20 21 23 25 25 25 27 28 29 31 32 33 33 33 33 34 34 30 28 27 26 25 24 24 24 25 26 27
13 11 12 13 12 11 13 14 14 16 17 17 18 18 20 20 22 23 24 26 27 29 29 30 31 33 33 34 36 36 34 34 36 36 35 35 33 30 26 26 27 28 29
17 19 19 15 11 10 12 12 14 15 17 18 18 20 20 21 23 23 24 26 28 28 29 31 32 34 36 37 38 37 33 32 34 34 35 36 34 32 29 29 30 32 31
17 17 17 15 12 9 10 12 12 14 15 16 18 19 22 22 22 23 24 27 29 29 31 33 35 36 37 39 39 39 39 42 41 40 40 39 38 38 36 33 34 34 36
14 12 11 9 8 8 10 12 13 14 16 18 18 20 22 23 24 24 26 28 30 31 32 34 36 37 40 41 40 41 40 40 42 39 39 38 40 40 40 39 39 42 40
9 8 9 9 8 9 10 12 13 15 17 17 19 20 22 23 25 26 27 29 31 32 33 36 37 39 39 40 41 39 41 37 37 37 39 41 40 43 42 41 43 41 42
6 7 8 9 9 9 10 11 13 14 15 17 19 20 22 24 25 27 29 30 32 33 34 35 35 38 37 39 40 42 37 36 37 42 45 43 45 43 44 42 41 43 44
5 7 9 10 11 11 12 13 13 13 15 16 18 21 23 25 27 28 30 32 33 33 34 35 36 36 36 39 40 41 43 43 40 43 39 45 41 44 44 46 49 50 48
6 7 8 10 11 11 12 13 13 14 16 17 19 21 23 26 28 29 30 31 32 32 33 34 35 37 39 39 39 39 44 45 53 38 46 40 50 46 49 48 48 48 52
5 7 9 10 11 12 12 12 12 14 15 17 19 20 22 25 27 29 30 30 31 32 34 35 35 37 38 40 39 36 39 43 52 57 38 51 48 48 49 47 52 48 51
5 6 8 11 12 13 13 13 14 15 17 18 20 21 22 24 26 29 30 31 32 33 34 35 36 37 37 38 40 41 43 42 45 51 62 55 50 48 47 49 50 55 53
4 6 7 9 12 13 14 14 15 16 17 19 21 23 24 25 27 30 32 33 33 33 34 35 37 38 38 38 39 41 43 46 49 51 55 59 59 54 48 52 50 54 49
Wind_Direction
20 37 40 46 47 42 46 39 29 21 11 360 354 356 359 5 354 346 336 336 332 331 329 329 337 334 338 341 355 357 356 352 347 345 347 360 25 36 22 19 10 10 23
30 38 42 46 50 50 54 42 29 22 12 2 1 358 351 352 347 344 343 341 342 335 337 327 324 330 333 336 340 338 344 346 345 351 351 18 59 73 49 30 36 10 360
31 41 49 54 54 53 56 44 32 26 20 21 14 5 352 341 341 346 351 349 344 339 335 329 326 328 330 327 328 335 338 345 348 354 2 36 60 81 56 54 48 46 23
27 37 51 50 44 51 57 43 31 30 25 18 21 12 345 335 330 347 357 347 352 350 344 337 331 330 327 326 328 330 332 334 340 342 349 359 352 32 27 25 24 32 35
15 36 52 49 45 53 49 42 39 33 31 18 22 31 357 333 327 334 351 348 352 350 347 345 344 341 334 331 327 328 326 326 333 336 336 339 340 338 352 347 349 350 352
14 26 46 40 45 47 43 45 39 35 37 29 20 27 17 343 324 344 351 356 356 348 346 345 345 343 338 332 332 331 325 318 325 325 319 325 340 335 328 330 329 328 327
13 26 28 39 42 41 43 45 39 43 36 30 19 11 7 343 343 354 357 358 359 353 348 345 341 337 334 332 332 332 332 331 324 323 325 324 329 329 325 323 322 323 322
359 23 25 33 32 41 45 45 38 45 37 28 19 6 355 347 345 352 359 355 351 355 351 347 340 335 330 327 330 329 332 333 329 325 323 323 319 322 321 318 317 315 315
356 12 22 23 27 34 32 34 37 46 45 31 23 11 360 356 351 349 355 353 351 348 343 341 334 329 326 325 325 326 331 333 332 331 329 327 325 322 319 317 314 312 310
335 352 357 28 20 31 38 38 38 42 40 38 35 29 19 9 5 360 356 351 347 341 335 334 332 330 329 328 329 330 333 334 332 331 331 329 326 323 319 317 315 312 308
312 326 324 348 17 32 36 39 37 30 36 45 46 49 38 40 36 23 5 354 341 335 334 336 336 336 336 334 333 334 332 331 332 331 329 326 324 322 319 317 315 312 310
315 312 312 328 344 345 343 18 24 30 25 37 50 55 51 37 13 7 1 359 352 347 344 342 341 340 337 336 334 331 331 330 329 328 328 325 323 322 321 319 317 314 311
319 317 307 316 334 344 346 3 14 16 17 17 19 21 24 17 16 12 9 5 358 351 349 344 341 339 337 337 332 330 329 328 326 324 324 323 320 318 315 313 312 310 306
315 314 314 312 321 328 340 348 356 6 6 1 8 4 6 8 4 2 354 351 352 351 346 340 339 336 335 333 332 331 329 327 328 327 325 321 318 315 313 312 311 309 308
315 314 309 319 319 317 327 347 341 342 355 357 356 356 356 354 351 346 344 344 345 343 340 338 335 333 332 331 330 330 327 325 330 329 328 325 322 319 317 315 313 312 311
308 313 316 314 317 328 330 337 343 342 350 351 350 351 350 348 347 346 345 345 343 340 339 337 335 334 332 331 328 327 330 329 327 325 325 324 323 321 319 318 317 314 312
301 302 304 310 318 328 332 338 342 346 350 354 352 348 349 350 347 348 350 349 345 345 343 340 338 334 331 329 327 328 332 333 330 328 326 325 324 324 321 318 317 316 315
302 306 306 308 318 335 346 346 352 355 1 359 358 358 352 353 355 356 354 348 344 342 340 338 335 333 332 330 329 328 327 323 324 324 323 324 325 326 326 323 319 319 315
305 318 325 339 343 355 5 0 2 5 7 3 3 0 358 357 357 358 353 348 342 340 340 338 335 334 330 329 330 327 327 327 324 327 329 330 328 327 326 327 325 322 320
317 341 348 357 11 17 16 12 11 13 7 3 4 2 1 0 359 357 353 349 345 342 340 338 336 335 334 333 330 331 330 332 333 333 331 330 329 328 328 327 325 326 324
348 2 14 26 32 34 27 23 17 11 9 9 8 8 4 1 359 357 352 348 347 344 343 342 342 338 339 338 335 333 336 337 334 332 328 329 326 328 328 328 328 325 323
347 0 13 17 22 23 24 29 26 19 21 18 13 6 4 0 358 355 351 348 347 346 345 344 343 342 342 341 338 335 331 331 333 331 332 328 330 329 327 326 323 320 320
355 2 12 19 25 28 34 35 31 22 15 9 6 5 2 1 357 354 352 351 350 351 347 346 345 342 338 340 341 339 332 328 326 333 328 329 325 326 324 325 324 323 320
358 13 19 29 36 40 41 38 26 16 10 6 5 4 3 1 359 356 356 354 352 350 346 344 345 343 341 338 339 340 336 332 328 323 331 325 326 325 325 325 322 323 321
349 2 17 26 31 33 31 28 22 13 7 7 5 2 2 0 359 357 355 353 350 348 346 344 342 341 341 338 336 335 334 332 330 325 321 324 325 326 325 324 324 321 322
346 5 22 28 27 28 24 19 13 8 4 2 359 357 357 357 355 353 351 349 348 347 344 343 341 340 338 337 335 334 332 330 329 326 323 322 321 325 326 325 324 323 324